Location: Saluda
(35.2377°N, 82.3468°W)
Time: 09:32:31
(UTC+00:00)

deb Explorer IX - Visible Passes

Search period start: 06 October 2022 00:00
Search period end: 16 October 2022 00:00
Orbit: 532 x 1064 km, 38.8° (Epoch: 05 October)

Date Brightness Start Highest point End Pass type
(mag) Time Alt. Az. Time Alt. Az. Time Alt. Az.
06 Oct ? 08:44:46 15° ESE 08:44:46 15° ESE 08:46:10 10° E visible
06 Oct ? 10:25:35 18° WSW 10:28:48 75° SSE 10:33:53 10° ENE visible
07 Oct ? 09:56:51 42° SW 09:58:14 70° SSE 10:03:06 10° ENE visible
08 Oct ? 09:28:03 61° SE 09:28:03 61° SE 09:32:20 10° ENE visible
09 Oct ? 08:59:10 29° E 08:59:10 29° E 09:01:33 10° ENE visible
09 Oct ? 10:39:58 16° W 10:43:25 59° N 10:48:22 10° ENE visible
10 Oct ? 08:30:14 13° E 08:30:14 13° E 08:30:47 10° ENE visible
10 Oct ? 10:11:01 33° WNW 10:12:46 60° N 10:17:31 10° ENE visible
11 Oct ? 09:42:02 61° NNW 09:42:05 61° N 09:46:40 10° ENE visible
12 Oct ? 09:13:00 36° ENE 09:13:00 36° ENE 09:15:50 10° ENE visible
12 Oct ? 10:53:47 11° WNW 10:57:57 58° N 11:02:50 10° E visible
13 Oct ? 08:43:57 17° ENE 08:43:57 17° ENE 08:45:00 10° ENE visible
13 Oct ? 10:24:44 23° WNW 10:27:14 55° N 10:31:53 10° E visible
14 Oct ? 09:55:39 45° NW 09:56:29 54° N 10:00:57 10° E visible
15 Oct ? 09:26:34 44° NE 09:26:34 44° NE 09:30:01 10° E visible
15 Oct ? 11:07:48 10° WNW 11:12:05 80° SSW 11:16:57 10° ESE visible
